H1 CPF 1 NER 2019 5 25 9 6451 glonass128 H2 1106401 9128 37867 2019 5 25 0 0 0 2019 5 28 23 45 0 900 1 1 0 0 0 H9 10 0 58628 0.00000 0 6306835.002 -23999624.273 6051700.217 10 0 58628 900.00000 0 6073440.519 -23093383.019 9078265.818 10 0 58628 1800.00000 0 5892340.618 -21812050.085 11929264.575 10 0 58628 2700.00000 0 5813671.362 -20185294.744 14549666.649 10 0 58628 3600.00000 0 5881370.446 -18254108.130 16888925.072 10 0 58628 4500.00000 0 6131132.892 -16069234.664 18901930.506 10 0 58628 5400.00000 0 6588721.768 -13689217.911 20549861.628 10 0 58628 6300.00000 0 7268703.796 -11178140.845 21800916.765 10 0 58628 7200.00000 0 8173662.067 -8603152.657 22630914.414 10 0 58628 8100.00000 0 9293918.815 -6031882.425 23023752.590 10 0 58628 9000.00000 0 10607780.548 -3529844.264 22971719.085 10 0 58628 9900.00000 0 12082296.785 -1157938.991 22475646.960 10 0 58628 10800.00000 0 13674502.923 1029846.560 21544911.968 10 0 58628 11700.00000 0 15333098.042 2988449.122 20197270.880 10 0 58628 12600.00000 0 17000490.495 4683365.335 18458542.262 10 0 58628 13500.00000 0 18615128.751 6091847.487 16362133.725 10 0 58628 14400.00000 0 20114022.567 7203608.833 13948422.418 10 0 58628 15300.00000 0 21435350.840 8021008.335 11263998.289 10 0 58628 16200.00000 0 22521047.950 8558706.049 8360782.490 10 0 58628 17100.00000 0 23319260.167 8842802.284 5295036.007 10 0 58628 18000.00000 0 23786568.041 8909495.408 2126276.469 10 0 58628 18900.00000 0 23889879.579 8803313.875 -1083876.604 10 0 58628 19800.00000 0 23607912.095 8574996.590 -4272905.681 10 0 58628 20700.00000 0 22932197.486 8279111.331 -7378624.028 10 0 58628 21600.00000 0 21867565.678 7971512.936 -10340404.239 10 0 58628 22500.00000 0 20432083.118 7706750.426 -13100380.827 10 0 58628 23400.00000 0 18656446.745 7535535.040 -15604601.264 10 0 58628 24300.00000 0 16582857.315 7502378.957 -17804100.952 10 0 58628 25200.00000 0 14263418.674 7643507.344 -19655879.135 10 0 58628 26100.00000 0 11758130.201 7985134.625 -21123754.890 10 0 58628 27000.00000 0 9132557.232 8542180.069 -22179085.176 10 0 58628 27900.00000 0 6455278.145 9317478.653 -22801330.064 10 0 58628 28800.00000 0 3795216.294 10301521.528 -22978453.690 10 0 58628 29700.00000 0 1218969.634 11472737.404 -22707153.261 10 0 58628 30600.00000 0 -1211749.491 12798302.711 -21992912.183 10 0 58628 31500.00000 0 -3442456.915 14235445.552 -20849877.197 10 0 58628 32400.00000 0 -5427924.035 15733187.329 -19300563.150 10 0 58628 33300.00000 0 -7133806.390 17234447.346 -17375392.553 10 0 58628 34200.00000 0 -8537807.069 18678420.319 -15112080.466 10 0 58628 35100.00000 0 -9630328.874 20003125.553 -12554878.281 10 0 58628 36000.00000 0 -10414590.996 21148019.614 -9753692.655 10 0 58628 36900.00000 0 -10906208.686 22056562.102 -6763098.219 10 0 58628 37800.00000 0 -11132257.108 22678626.728 -3641264.525 10 0 58628 38700.00000 0 -11129862.070 22972656.901 -448819.020 10 0 58628 39600.00000 0 -10944379.791 22907476.340 2752331.139 10 0 58628 40500.00000 0 -10627244.637 22463680.122 5900195.332 10 0 58628 41400.00000 0 -10233577.011 21634549.450 8933890.890 10 0 58628 42300.00000 0 -9819652.793 20426453.472 11794807.108 10 0 58628 43200.00000 0 -9440340.813 18858722.770 14427720.595 10 0 58628 44100.00000 0 -9146615.375 16963000.802 16781841.896 10 0 58628 45000.00000 0 -8983247.166 14782100.850 18811774.967 10 0 58628 45900.00000 0 -8986767.995 12368415.802 20478373.008 10 0 58628 46800.00000 0 -9183793.284 9781945.897 21749476.185 10 0 58628 47700.00000 0 -9589771.379 7088024.731 22600518.778 10 0 58628 48600.00000 0 -10208211.418 4354835.590 23014995.585 10 0 58628 49500.00000 0 -11030422.042 1650818.382 22984779.569 10 0 58628 50400.00000 0 -12035772.672 -957928.066 22510284.961 10 0 58628 51300.00000 0 -13192467.977 -3410143.445 21600472.400 10 0 58628 52200.00000 0 -14458805.366 -5651701.954 20272694.990 10 0 58628 53100.00000 0 -15784865.494 -7637613.264 18552386.670 10 0 58628 54000.00000 0 -17114567.854 -9333646.459 16472596.847 10 0 58628 54900.00000 0 -18388008.009 -10717509.750 14073377.856 10 0 58628 55800.00000 0 -19543980.611 -11779536.329 11401034.722 10 0 58628 56700.00000 0 -20522583.811 -12522846.835 8507249.364 10 0 58628 57600.00000 0 -21267796.174 -12962980.375 5448094.266 10 0 58628 58500.00000 0 -21729917.264 -13127008.114 2282953.375 10 0 58628 59400.00000 0 -21867767.763 -13052165.545 -926629.615 10 0 58628 60300.00000 0 -21650554.220 -12784060.235 -4118153.240 10 0 58628 61200.00000 0 -21059317.045 -12374530.393 -7229386.420 10 0 58628 62100.00000 0 -20087897.633 -11879245.248 -10199597.571 10 0 58628 63000.00000 0 -18743380.790 -11355149.853 -12970759.048 10 0 58628 63900.00000 0 -17045991.134 -10857864.212 -15488701.269 10 0 58628 64800.00000 0 -15028445.658 -10439149.048 -17704191.938 10 0 58628 65700.00000 0 -12734788.224 -10144547.919 -19573917.289 10 0 58628 66600.00000 0 -10218754.334 -10011307.860 -21061344.359 10 0 58628 67500.00000 0 -7541734.822 -10066668.671 -22137446.158 10 0 58628 68400.00000 0 -4770424.392 -10326594.844 -22781274.676 10 0 58628 69300.00000 0 -1974254.548 -10795004.791 -22980370.107 10 0 58628 70200.00000 0 777280.641 -11463530.318 -22730998.447 10 0 58628 71100.00000 0 3417293.214 -12311816.237 -22038213.323 10 0 58628 72000.00000 0 5884052.179 -13308346.611 -20915741.758 10 0 58628 72900.00000 0 8123310.027 -14411761.477 -19385697.313 10 0 58628 73800.00000 0 10090308.314 -15572606.945 -17478127.564 10 0 58628 74700.00000 0 11751379.771 -16735443.161 -15230406.314 10 0 58628 75600.00000 0 13085082.081 -17841219.713 -12686483.953 10 0 58628 76500.00000 0 14082818.606 -18829817.021 -9896012.093 10 0 58628 77400.00000 0 14748923.127 -19642645.705 -6913361.028 10 0 58628 78300.00000 0 15100208.566 -20225194.004 -3796550.368 10 0 58628 79200.00000 0 15165002.003 -20529416.103 -606114.613 10 0 58628 80100.00000 0 14981709.666 -20515861.493 2596073.568 10 0 58628 81000.00000 0 14596974.929 -20155456.906 5747999.263 10 0 58628 81900.00000 0 14063508.736 -19430867.289 8788697.511 10 0 58628 82800.00000 0 13437684.895 -18337380.228 11659419.215 10 0 58628 83700.00000 0 12777001.721 -16883278.110 14304749.376 10 0 58628 84600.00000 0 12137516.290 -15089683.468 16673657.569 10 0 58628 85500.00000 0 11571357.995 -12989884.571 18720462.110 10 0 58629 0.00000 0 11124424.215 -10628169.293 20405691.323 10 0 58629 900.00000 0 10834353.340 -8058214.623 21696827.485 10 0 58629 1800.00000 0 10728857.485 -5341098.061 22568920.460 10 0 58629 2700.00000 0 10824485.194 -2543010.178 23005061.298 10 0 58629 3600.00000 0 11125863.299 267238.708 22996707.305 10 0 58629 4500.00000 0 11625451.038 3020817.554 22543852.795 10 0 58629 5400.00000 0 12303816.907 5651474.510 21655041.994 10 0 58629 6300.00000 0 13130428.393 8098032.650 20347222.869 10 0 58629 7200.00000 0 14064923.604 10306680.061 18645443.131 10 0 58629 8100.00000 0 15058814.004 12232960.718 16582392.255 10 0 58629 9000.00000 0 16057549.412 13843384.095 14197795.941 10 0 58629 9900.00000 0 17002860.844 15116586.311 11537672.342 10 0 58629 10800.00000 0 17835284.508 16043993.663 8653462.096 10 0 58629 11700.00000 0 18496761.724 16629959.559 5601047.010 10 0 58629 12600.00000 0 18933205.282 16891367.582 2439675.062 10 0 58629 13500.00000 0 19096923.132 16856715.920 -769188.243 10 0 58629 14400.00000 0 18948795.305 16564720.504 -3963059.920 10 0 58629 15300.00000 0 18460109.639 16062495.003 -7079666.911 10 0 58629 16200.00000 0 17613975.805 15403384.484 -10058175.734 10 0 58629 17100.00000 0 16406254.728 14644544.898 -12840398.705 10 0 58629 18000.00000 0 14845961.181 13844372.043 -15371951.115 10 0 58629 18900.00000 0 12955119.926 13059890.582 -17603334.679 10 0 58629 19800.00000 0 10768079.382 12344215.739 -19490924.110 10 0 58629 20700.00000 0 8330310.449 11744197.233 -20997835.700 10 0 58629 21600.00000 0 5696740.343 11298347.203 -22094659.612 10 0 58629 22500.00000 0 2929691.416 11035141.322 -22760040.667 10 0 58629 23400.00000 0 96512.007 10971766.036 -22981095.814 10 0 58629 24300.00000 0 -2733000.641 11113365.262 -22753660.274 10 0 58629 25200.00000 0 -5489276.679 11452818.094 -22082358.005 10 0 58629 26100.00000 0 -8105636.485 11971056.002 -20980496.059 10 0 58629 27000.00000 0 -10520828.409 12637904.701 -19469786.040 10 0 58629 27900.00000 0 -12681335.661 13413413.367 -17579899.515 10 0 58629 28800.00000 0 -14543356.712 14249613.117 -15347867.577 10 0 58629 29700.00000 0 -16074378.033 15092628.569 -12817337.835 10 0 58629 30600.00000 0 -17254275.647 15885051.628 -10037704.827 10 0 58629 31500.00000 0 -18075902.054 16568475.923 -7063132.289 10 0 58629 32400.00000 0 -18545137.179 17086084.059 -3951487.555 10 0 58629 33300.00000 0 -18680404.488 17385178.221 -763209.751 10 0 58629 34200.00000 0 -18511675.773 17419547.630 2439865.417 10 0 58629 35100.00000 0 -18079009.282 17151573.856 5595701.257 10 0 58629 36000.00000 0 -17430684.956 16553986.463 8643253.069 10 0 58629 36900.00000 0 -16621016.640 15611196.482 11523635.911 10 0 58629 37800.00000 0 -15707934.002 14320153.076 14181245.710 10 0 58629 38700.00000 0 -14750435.598 12690688.548 16564813.548 10 0 58629 39600.00000 0 -13806019.142 10745337.957 18628374.481 10 0 58629 40500.00000 0 -12928195.345 8518640.949 20332134.238 10 0 58629 41400.00000 0 -12164187.689 6055954.217 21643219.106 10 0 58629 42300.00000 0 -11552912.564 3411822.725 22536296.340 10 0 58629 43200.00000 0 -11123322.541 647975.252 22994054.713 10 0 58629 44100.00000 0 -10893180.771 -2168975.174 23007536.981 10 0 58629 45000.00000 0 -10868317.065 -4970033.494 22576318.265 10 0 58629 45900.00000 0 -11042396.787 -7686426.852 21708526.684 10 0 58629 46800.00000 0 -11397213.061 -10252205.824 20420704.926 10 0 58629 47700.00000 0 -11903491.516 -12606737.144 18737513.874 10 0 58629 48600.00000 0 -12522175.853 -14696986.329 16691282.001 10 0 58629 49500.00000 0 -13206142.587 -16479496.396 14321406.849 10 0 58629 50400.00000 0 -13902275.122 -17921980.473 11673617.758 10 0 58629 51300.00000 0 -14553811.875 -19004461.382 8799111.758 10 0 58629 52200.00000 0 -15102870.790 -19719909.424 5753577.326 10 0 58629 53100.00000 0 -15493044.318 -20074350.044 2596123.543 10 0 58629 54000.00000 0 -15671954.832 -20086435.221 -611865.422 10 0 58629 54900.00000 0 -15593661.185 -19786495.004 -3807928.383 10 0 58629 55800.00000 0 -15220812.482 -19215107.997 -6929753.760 10 0 58629 56700.00000 0 -14526455.225 -18421250.470 -9916409.698 10 0 58629 57600.00000 0 -13495414.275 -17460102.342 -12709552.018 10 0 58629 58500.00000 0 -12125186.097 -16390603.497 -15254584.332 10 0 58629 59400.00000 0 -10426303.639 -15272865.111 -17501745.625 10 0 58629 60300.00000 0 -8422154.880 -14165547.191 -19407102.033 10 0 58629 61200.00000 0 -6148260.955 -13123315.217 -20933421.607 10 0 58629 62100.00000 0 -3651043.016 -12194485.267 -22050913.628 10 0 58629 63000.00000 0 -986129.195 -11418958.780 -22737817.087 10 0 58629 63900.00000 0 1783727.051 -10826535.294 -22980826.390 10 0 58629 64800.00000 0 4591029.455 -10435674.908 -22775346.032 10 0 58629 65700.00000 0 7366121.722 -10252762.463 -22125569.768 10 0 58629 66600.00000 0 10039861.698 -10271903.612 -21044383.587 10 0 58629 67500.00000 0 12546274.520 -10475259.862 -19553095.576 10 0 58629 68400.00000 0 14825073.717 -10833906.453 -17680999.291 10 0 58629 69300.00000 0 16823945.178 -11309174.611 -15464780.703 10 0 58629 70200.00000 0 18500499.574 -11854419.168 -12947781.852 10 0 58629 71100.00000 0 19823813.263 -12417134.685 -10179137.064 10 0 58629 72000.00000 0 20775495.409 -12941328.822 -7212800.079 10 0 58629 72900.00000 0 21350239.441 -13370051.301 -4106482.277 10 0 58629 73800.00000 0 21555838.788 -13647970.795 -920523.616 10 0 58629 74700.00000 0 21412669.312 -13723890.724 2283280.966 10 0 58629 75600.00000 0 20952663.121 -13553098.143 5442876.677 10 0 58629 76500.00000 0 20217819.335 -13099447.499 8497142.484 10 0 58629 77400.00000 0 19258316.186 -12337092.650 11387060.651 10 0 58629 78300.00000 0 18130304.824 -11251795.583 14056840.633 10 0 58629 79200.00000 0 16893477.625 -9841757.995 16454977.120 10 0 58629 80100.00000 0 15608512.430 -8117941.736 18535223.502 10 0 58629 81000.00000 0 14334498.556 -6103865.022 20257463.972 10 0 58629 81900.00000 0 13126450.518 -3834882.474 21588469.498 10 0 58629 82800.00000 0 12033011.441 -1356977.969 22502524.863 10 0 58629 83700.00000 0 11094440.085 1274881.357 22981916.306 10 0 58629 84600.00000 0 10340963.753 3998764.057 23017271.406 10 0 58629 85500.00000 0 9791564.568 6748085.326 22607745.115 10 0 58630 0.00000 0 9453249.138 9454117.218 21761048.200 10 0 58630 900.00000 0 9320832.368 12048597.237 20493316.464 10 0 58630 1800.00000 0 9377244.602 14466329.637 18828822.218 10 0 58630 2700.00000 0 9594351.866 16647673.426 16799530.947 10 0 58630 3600.00000 0 9934255.280 18540815.715 14444509.896 10 0 58630 4500.00000 0 10351018.057 20103735.587 11809197.294 10 0 58630 5400.00000 0 10792748.865 21305776.769 8944544.133 10 0 58630 6300.00000 0 11203955.402 22128762.235 5906043.013 10 0 58630 7200.00000 0 11528069.667 22567602.517 2752661.488 10 0 58630 8100.00000 0 11710038.261 22630370.356 -454300.292 10 0 58630 9000.00000 0 11698867.273 22337836.698 -3652405.605 10 0 58630 9900.00000 0 11450012.356 21722485.899 -6779306.926 10 0 58630 10800.00000 0 10927510.321 20827050.547 -9773976.446 10 0 58630 11700.00000 0 10105759.115 19702627.186 -12577915.687 10 0 58630 12600.00000 0 8970867.646 18406452.707 -15136318.531 10 0 58630 13500.00000 0 7521515.315 16999436.162 -17399162.911 10 0 58630 14400.00000 0 5769282.090 15543551.620 -19322207.806 10 0 58630 15300.00000 0 3738432.985 14099203.898 -20867874.204 10 0 58630 16200.00000 0 1465164.391 12722680.167 -22005991.451 10 0 58630 17100.00000 0 -1003656.971 11463796.554 -22714393.447 10 0 58630 18000.00000 0 -3612209.669 10363840.279 -22979352.540 10 0 58630 18900.00000 0 -6297815.507 9453894.678 -22795842.715 10 0 58630 19800.00000 0 -8993331.235 8753617.643 -22167627.398 10 0 58630 20700.00000 0 -11629732.963 8270524.165 -21107171.024 10 0 58630 21600.00000 0 -14138784.431 7999801.698 -19635377.268 10 0 58630 22500.00000 0 -16455677.029 7924664.041 -17781160.392 10 0 58630 23400.00000 0 -18521531.036 8017226.347 -15580859.624 10 0 58630 24300.00000 0 -20285653.991 8239861.645 -13077509.528 10 0 58630 25200.00000 0 -21707462.849 8546978.978 -10319982.117 10 0 58630 26100.00000 0 -22757991.131 8887145.651 -7362018.910 10 0 58630 27000.00000 0 -23420920.281 9205461.976 -4261173.040 10 0 58630 27900.00000 0 -23693094.649 9446086.750 -1077682.965 10 0 58630 28800.00000 0 -23584501.380 9554806.013 2126699.504 10 0 58630 29700.00000 0 -23117718.890 9481536.479 5289903.843 10 0 58630 30600.00000 0 -22326859.652 9182658.423 8350735.107 10 0 58630 31500.00000 0 -21256053.665 8623080.585 11250045.185 10 0 58630 32400.00000 0 -19957537.640 7777951.294 13931859.473 10 0 58630 33300.00000 0 -18489430.556 6633945.041 16344438.638 10 0 58630 34200.00000 0 -16913288.518 5190071.512 18441256.654 10 0 58630 35100.00000 0 -15291540.269 3457973.748 20181878.270 10 0 58630 36000.00000 0 -13684908.864 1461702.890 21532720.978 10 0 58630 36900.00000 0 -12149925.192 -763021.807 22467688.661 10 0 58630 37800.00000 0 -10736634.849 -3170038.400 22968666.271 10 0 58630 38700.00000 0 -9486591.819 -5704404.388 23025867.115 10 0 58630 39600.00000 0 -8431220.875 -8304429.149 22638026.531 10 0 58630 40500.00000 0 -7590615.664 -10903995.443 21812438.065 10 0 58630 41400.00000 0 -6972822.017 -13435076.774 20564830.578 10 0 58630 42300.00000 0 -6573636.590 -15830348.974 18919087.201 10 0 58630 43200.00000 0 -6376930.001 -18025790.030 16906809.554 10 0 58630 44100.00000 0 -6355482.285 -19963161.810 14566733.311 10 0 58630 45000.00000 0 -6472297.297 -21592271.217 11944003.992 10 0 58630 45900.00000 0 -6682342.548 -22872916.510 9089324.637 10 0 58630 46800.00000 0 -6934642.710 -23776436.683 6057989.781 10 0 58630 47700.00000 0 -7174639.556 -24286797.499 2908823.015 10 0 58630 48600.00000 0 -7346718.982 -24401166.685 -296962.173 10 0 58630 49500.00000 0 -7396797.751 -24129952.015 -3496956.350 10 0 58630 50400.00000 0 -7274859.157 -23496298.592 -6628779.048 10 0 58630 51300.00000 0 -6937328.150 -22535064.884 -9631309.641 10 0 58630 52200.00000 0 -6349182.594 -21291319.570 -12445898.578 10 0 58630 53100.00000 0 -5485708.259 -19818422.214 -15017533.256 10 0 58630 54000.00000 0 -4333820.122 -18175769.056 -17295933.724 10 0 58630 54900.00000 0 -2892891.115 -16426299.937 -19236554.782 10 0 58630 55800.00000 0 -1175050.824 -14633872.917 -20801473.025 10 0 58630 56700.00000 0 795060.452 -12860618.872 -21960140.135 10 0 58630 57600.00000 0 2981073.254 -11164389.090 -22689986.694 10 0 58630 58500.00000 0 5336173.786 -9596404.709 -22976864.242 10 0 58630 59400.00000 0 7804838.069 -8199207.695 -22815316.961 10 0 58630 60300.00000 0 10324942.199 -7004999.701 -22208678.139 10 0 58630 61200.00000 0 12830159.379 -6034438.138 -21168990.349 10 0 58630 62100.00000 0 15252542.476 -5295938.709 -19716752.074 10 0 58630 63000.00000 0 17525183.219 -4785511.722 -17880497.045 10 0 58630 63900.00000 0 19584836.193 -4487136.534 -15696216.045 10 0 58630 64800.00000 0 21374397.819 -4373655.431 -13206633.999 10 0 58630 65700.00000 0 22845137.125 -4408146.231 -10460357.982 10 0 58630 66600.00000 0 23958585.971 -4545712.858 -7510914.231 10 0 58630 67500.00000 0 24688011.325 -4735615.736 -4415694.199 10 0 58630 68400.00000 0 25019410.098 -4923650.021 -1234831.150 10 0 58630 69300.00000 0 24951987.313 -5054669.880 1969970.072 10 0 58630 70200.00000 0 24498100.223 -5075151.506 5136627.060 10 0 58630 71100.00000 0 23682673.210 -4935686.679 8203874.637 10 0 58630 72000.00000 0 22542110.124 -4593302.262 11112437.748 10 0 58630 72900.00000 0 21122751.236 -4013508.888 13806160.793 10 0 58630 73800.00000 0 19478940.253 -3171993.736 16233073.053 10 0 58630 74700.00000 0 17670782.333 -2055887.481 18346371.270 10 0 58630 75600.00000 0 15761686.085 -664553.048 20105302.456 10 0 58630 76500.00000 0 13815790.693 990136.533 21475931.897 10 0 58630 77400.00000 0 11895383.521 2884043.069 22431783.386 10 0 58630 78300.00000 0 10058413.489 4981521.852 22954340.972 10 0 58630 79200.00000 0 8356201.364 7236664.247 23033403.647 10 0 58630 80100.00000 0 6831440.150 9594974.933 22667286.666 10 0 58630 81000.00000 0 5516567.000 11995417.008 21862865.510 10 0 58630 81900.00000 0 4432573.305 14372743.142 20635460.780 10 0 58630 82800.00000 0 3588302.090 16660018.869 19008564.830 10 0 58630 83700.00000 0 2980262.233 18791235.851 17013413.456 10 0 58630 84600.00000 0 2592968.129 20703908.458 14688408.534 10 0 58630 85500.00000 0 2399791.849 22341546.682 12078400.411 10 0 58631 0.00000 0 2364293.563 23655902.654 9233841.580 10 0 58631 900.00000 0 2441975.665 24608896.056 6209825.557 10 0 58631 1800.00000 0 2582388.009 25174137.261 3065029.107 10 0 58631 2700.00000 0 2731495.760 25337980.838 -139423.938 10 0 58631 3600.00000 0 2834209.897 25100064.660 -3341154.419 10 0 58631 4500.00000 0 2836972.223 24473308.221 -6477751.811 10 0 58631 5400.00000 0 2690283.777 23483368.746 -9488005.394 10 0 58631 6300.00000 0 2351067.173 22167576.135 -12313117.025 10 0 58631 7200.00000 0 1784759.976 20573390.679 -14897869.820 10 0 58631 8100.00000 0 967047.447 18756448.256 -17191727.837 10 0 58631 9000.00000 0 -114841.712 16778275.765 -19149843.290 10 0 58631 9900.00000 0 -1461334.035 14703774.057 -20733949.692 10 0 58631 10800.00000 0 -3060240.480 12598575.677 -21913122.085 10 0 58631 11700.00000 0 -4887029.141 10526390.035 -22664388.499 10 0 58631 12600.00000 0 -6905630.880 8546449.054 -22973180.144 10 0 58631 13500.00000 0 -9069744.240 6711161.556 -22833611.560 10 0 58631 14400.00000 0 -11324584.512 5064075.311 -22248585.702 10 0 58631 15300.00000 0 -13609002.779 3638232.043 -21229722.698 10 0 58631 16200.00000 0 -15857885.075 2454983.358 -19797114.849 10 0 58631 17100.00000 0 -18004730.166 1523315.465 -17978913.969 10 0 58631 18000.00000 0 -19984297.053 839708.647 -15810760.664 10 0 58631 18900.00000 0 -21735210.802 388534.388 -13335068.205 10 0 58631 19800.00000 0 -23202417.592 142970.221 -10600176.502 10 0 58631 20700.00000 0 -24339386.606 66390.564 -7659394.154 10 0 58631 21600.00000 0 -25109967.642 114171.866 -4569948.500 10 0 58631 22500.00000 0 -25489828.273 235833.340 -1391865.120 10 0 58631 23400.00000 0 -25467412.322 377420.987 1813200.621 10 0 58631 24300.00000 0 -25044381.808 484033.007 4983156.969 10 0 58631 25200.00000 0 -24235526.151 502379.484 8056671.080 10 0 58631 26100.00000 0 -23068144.533 383268.553 10974343.506 10 0 58631 27000.00000 0 -21580928.988 83914.957 13679840.158 10 0 58631 27900.00000 0 -19822395.957 -430025.114 16120961.341 10 0 58631 28800.00000 0 -17848932.230 -1182777.250 18250628.804 10 0 58631 29700.00000 0 -15722536.372 -2187199.408 20027773.832 10 0 58631 30600.00000 0 -13508348.545 -3444011.554 21418111.207 10 0 58631 31500.00000 0 -11272069.837 -4941536.397 22394785.999 10 0 58631 32400.00000 0 -9077376.140 -6655962.673 22938882.339 10 0 58631 33300.00000 0 -6983431.581 -8552121.311 23039785.526 10 0 58631 34200.00000 0 -5042602.477 -10584744.171 22695390.998 10 0 58631 35100.00000 0 -3298464.604 -12700155.565 21912156.090 10 0 58631 36000.00000 0 -1784184.995 -14838329.199 20704992.747 10 0 58631 36900.00000 0 -521344.619 -16935227.905 19097001.855 10 0 58631 37800.00000 0 480749.323 -18925331.661 17119052.382 10 0 58631 38700.00000 0 1225232.444 -20744250.958 14809211.128 10 0 58631 39600.00000 0 1727325.532 -22331318.062 12212031.690 10 0 58631 40500.00000 0 2013463.974 -23632048.757 9377714.035 10 0 58631 41400.00000 0 2119949.407 -24600371.394 6361148.840 10 0 58631 42300.00000 0 2091179.104 -25200528.729 3220863.612 10 0 58631 43200.00000 0 1977526.913 -25408570.942 17890.060 10 0 58631 44100.00000 0 1832965.050 -25213374.713 -3185425.550 10 0 58631 45000.00000 0 1712527.783 -24617142.901 -6326645.378 10 0 58631 45900.00000 0 1669725.691 -23635361.226 -9344471.449 10 0 58631 46800.00000 0 1754021.966 -22296211.596 -12179959.932 10 0 58631 47700.00000 0 2008480.187 -20639465.170 -14777692.575 10 0 58631 48600.00000 0 2467686.063 -18714900.883 -17086880.299 10 0 58631 49500.00000 0 3156034.039 -16580315.791 -19062375.441 10 0 58631 50400.00000 0 4086453.998 -14299211.529 -20665570.897 10 0 58631 51300.00000 0 5259634.187 -11938255.156 -21865167.210 10 0 58631 52200.00000 0 6663775.035 -9564622.312 -22637791.603 10 0 58631 53100.00000 0 8274885.267 -7243335.697 -22968456.262 10 0 58631 54000.00000 0 10057608.359 -5034711.540 -22850846.954 10 0 58631 54900.00000 0 11966544.393 -2992021.822 -22287436.722 10 0 58631 55800.00000 0 13948011.013 -1159470.320 -21289423.250 10 0 58631 56700.00000 0 15942168.553 429433.477 -19876492.250 10 0 58631 57600.00000 0 17885418.959 1753035.880 -18076412.808 10 0 58631 58500.00000 0 19712976.682 2802189.429 -15924474.110 10 0 58631 59400.00000 0 21361502.831 3580367.771 -13462776.107 10 0 58631 60300.00000 0 22771691.630 4103243.417 -10739389.429 10 0 58631 61200.00000 0 23890700.628 4397749.516 -7807402.481 10 0 58631 62100.00000 0 24674323.348 4500668.491 -4723875.541 10 0 58631 63000.00000 0 25088814.350 4456810.048 -1548723.241 10 0 58631 63900.00000 0 25112291.712 4316857.838 1656452.010 10 0 58631 64800.00000 0 24735660.077 4134977.418 4829552.675 10 0 58631 65700.00000 0 23963017.582 3966287.492 7909181.771 10 0 58631 66600.00000 0 22811531.628 3864301.317 10835818.832 10 0 58631 67500.00000 0 21310790.340 3878445.745 13552954.440 10 0 58631 68400.00000 0 19501658.006 4051761.453 16008162.765 10 0 58631 69300.00000 0 17434682.807 4418879.864 18154093.088 10 0 58631 70200.00000 0 15168123.029 5004360.456 19949363.119 10 0 58631 71100.00000 0 12765672.937 5821457.148 21359338.922 10 0 58631 72000.00000 0 10293981.299 6871364.772 22356788.242 10 0 58631 72900.00000 0 7820063.472 8142977.158 22922396.295 10 0 58631 73800.00000 0 5408711.910 9613167.688 23045135.252 10 0 58631 74700.00000 0 3120010.054 11247582.080 22722480.849 10 0 58631 75600.00000 0 1007050.260 13001912.520 21960471.918 10 0 58631 76500.00000 0 -886051.534 14823602.735 20773610.904 10 0 58631 77400.00000 0 -2525763.321 16653915.827 19184605.916 10 0 58631 78300.00000 0 -3890300.683 18430281.570 17223957.359 10 0 58631 79200.00000 0 -4970298.146 20088827.798 14929394.835 10 0 58631 80100.00000 0 -5768959.651 21566992.119 12345172.762 10 0 58631 81000.00000 0 -6301680.784 22806105.848 9521235.977 10 0 58631 81900.00000 0 -6595157.375 23753842.227 6512269.324 10 0 58631 82800.00000 0 -6686016.554 24366425.449 3376648.128 10 0 58631 83700.00000 0 -6619026.925 24610506.148 175308.910 10 0 58631 84600.00000 0 -6444962.829 24464622.189 -3029438.036 10 0 58631 85500.00000 0 -6218213.002 23920180.590 -6175130.578 99